FW5642 Weather Reports


Display with metric or nautical units.
time (UTC)temp
F
wind
direction
speed
MPH
gust
MPH
rain 1hr
in
rain 24hr
in
rain mn
in
humidity
%
barometer
mb
20260905114533 52 116 0.0 0.0 0.00 0.00 0.00 91 1019.2
20260905113030 52 125 0.0 0.0 0.00 0.00 0.00 91 1019.2
20260905111537 52 135 0.0 0.0 0.00 0.00 0.00 91 1019.1
20260905110036 52 135 0.0 0.0 0.00 0.00 0.00 90 1019.1
20260905104535 52 131 0.0 0.0 0.00 0.00 0.00 90 1019.1
20260905103037 53 101 0.0 0.0 0.00 0.00 0.00 90 1019.1
20260905100037 54 90 0.0 0.0 0.00 0.00 0.00 89 1019.1
20260905094535 54 90 0.0 0.0 0.00 0.00 0.00 89 1019.1
20260905093033 54 102 0.0 0.0 0.00 0.00 0.00 89 1019.1
20260905090036 54 135 0.0 0.0 0.00 0.00 0.00 89 1018.9
20260905084531 54 135 0.0 0.0 0.00 0.00 0.00 89 1018.9
20260905083036 54 135 0.0 0.0 0.00 0.00 0.00 88 1018.8
20260905080106 54 135 0.0 0.0 0.00 0.00 0.00 87 1018.7
20260905073033 53 104 0.0 0.0 0.00 0.00 0.00 85 1018.3
20260905071533 53 304 0.0 0.0 0.00 0.00 0.00 83 1018.2
20260905070035 54 292 0.0 0.0 0.00 0.00 0.00 82 1018.1
20260905064536 55 280 0.0 0.0 0.00 0.00 0.00 81 1017.9
20260905063035 55 268 0.0 1.0 0.00 0.00 0.00 81 1017.9
20260905061532 55 203 0.0 3.0 0.00 0.00 0.00 80 1017.8
20260905060106 55 270 0.0 0.0 0.00 0.00 0.00 77 1017.8
20260905054535 57 270 0.0 0.0 0.00 0.00 0.00 74 1017.7
20260905053036 58 270 0.0 1.0 0.00 0.00 0.00 70 1017.7
20260905051535 59 230 0.0 4.0 0.00 0.00 0.00 70 1017.5
20260905044537 59 231 1.0 6.0 0.00 0.00 0.00 71 1017.5
20260905043036 58 225 0.0 5.0 0.00 0.00 0.00 71 1017.4
20260905041535 57 232 0.0 5.0 0.00 0.00 0.00 73 1017.5
20260905040143 57 233 0.0 4.0 0.00 0.00 0.00 75 1017.4
20260905034534 57 256 0.0 3.0 0.00 0.00 0.00 75 1017.1
20260905033034 58 232 0.0 4.0 0.00 0.00 0.00 75 1017.0
20260905031650 57 259 0.0 4.0 0.00 0.00 0.00 74 1016.9
20260905030149 58 266 0.0 4.0 0.00 0.00 0.00 73 1016.8
20260905024536 59 277 1.0 4.0 0.00 0.00 0.00 70 1016.8
20260905023037 61 288 1.0 3.0 0.00 0.00 0.00 67 1016.8
20260905021607 63 284 1.0 7.0 0.00 0.00 0.00 65 1016.6
20260905014532 64 273 3.0 10.0 0.00 0.03 0.00 64 1016.0
20260905011606 64 274 4.0 10.0 0.00 0.03 0.00 65 1015.8
20260905010034 65 283 1.0 4.0 0.00 0.03 0.00 64 1015.6
20260905004536 66 296 1.0 6.0 0.00 0.04 0.00 64 1015.6
20260905003038 64 306 2.0 6.0 0.00 0.04 0.00 67 1015.7
20260905001605 64 346 0.0 4.0 0.00 0.04 0.00 65 1015.7
20260905000033 64 341 1.0 6.0 0.00 0.04 0.00 66 1015.7
20260904234537 63 86 0.0 1.0 0.00 0.05 0.00 66 1015.7
20260904233034 66 133 1.0 10.0 0.00 0.05 0.00 61 1015.5
20260904231536 67 61 0.0 2.0 0.00 0.05 0.00 58 1015.3
20260904230149 68 71 0.0 2.0 0.00 0.05 0.00 56 1015.1
20260904224536 68 189 0.0 3.0 0.00 0.05 0.00 57 1015.1
20260904223107 69 271 0.0 3.0 0.00 0.05 0.00 56 1015.0
20260904214535 68 302 0.0 4.0 0.00 0.05 0.00 58 1015.1
20260904213105 66 260 1.0 5.0 0.00 0.05 0.00 59 1015.1
20260904211605 67 251 1.0 4.0 0.00 0.05 0.00 59 1015.1
20260904204534 66 304 1.0 4.0 0.00 0.05 0.00 59 1015.1
20260904203106 66 288 0.0 3.0 0.00 0.05 0.00 59 1015.2
20260904200142 66 335 2.0 6.0 0.00 0.05 0.00 59 1015.5
20260904194536 65 337 0.0 5.0 0.00 0.05 0.00 61 1015.6
20260904193033 66 323 2.0 5.0 0.00 0.05 0.00 60 1015.8
20260904191536 67 319 2.0 6.0 0.00 0.05 0.00 61 1015.8
20260904190105 65 351 1.0 6.0 0.00 0.05 0.00 67 1015.9
20260904184611 64 350 1.0 5.0 0.00 0.05 0.00 68 1015.9
20260904181644 65 17 0.0 4.0 0.00 0.05 0.00 69 1015.9
20260904180034 63 329 0.0 3.0 0.00 0.05 0.00 73 1015.9
20260904174534 61 5 0.0 2.0 0.00 0.05 0.00 77 1016.0
20260904171532 60 328 0.0 3.0 0.00 0.05 0.00 82 1015.9
20260904170035 59 254 0.0 4.0 0.00 0.05 0.00 85 1015.9
20260904164530 57 14 0.0 4.0 0.00 0.05 0.00 86 1015.9
20260904163037 56 39 0.0 0.0 0.00 0.05 0.00 90 1015.9
20260904160033 56 56 0.0 0.0 0.00 0.05 0.00 92 1015.9
20260904154533 55 86 0.0 0.0 0.00 0.05 0.00 94 1016.0
20260904153034 54 112 0.0 0.0 0.00 0.05 0.00 95 1015.9
20260904144530 52 112 0.0 0.0 0.00 0.05 0.00 95 1015.7
20260904141535 51 112 0.0 0.0 0.00 0.05 0.00 95 1015.4
20260904140033 51 113 0.0 0.0 0.00 0.05 0.00 94 1015.1
20260904134536 51 108 0.0 0.0 0.00 0.05 0.00 94 1015.0
20260904133037 51 112 0.0 0.0 0.00 0.05 0.00 94 1014.8
20260904131641 51 135 0.0 0.0 0.00 0.05 0.00 94 1014.6
20260904130034 51 135 0.0 0.0 0.00 0.05 0.00 94 1014.5
20260904124535 51 115 0.0 0.0 0.00 0.05 0.00 93 1014.6
20260904121606 51 112 0.0 0.0 0.00 0.05 0.00 93 1014.5
20260904120033 51 112 0.0 0.0 0.00 0.05 0.00 93 1014.4